RH
41 39 38 40 41 40 40 40 42 43 44 45 47 49 51 53 53 54 55 56 58 60 61 62 62 63 63 62 61 60 59 58 56 52 46 40 34 32 31 30 28 24 19 15 14 12 13 19 25 27 27 27 27 25 24 24 24 25 25 26 27 27 27 26 26 26 25 25 25 25 25 27 28 30 31 33 36 38 40 42 44 45 46 47 48
38 38 39 42 44 44 43 44 46 46 47 49 51 52 52 53 53 54 55 55 56 56 56 57 58 58 56 56 56 56 56 54 49 44 38 34 31 29 28 27 24 19 15 12 11 10 10 12 18 23 25 25 25 24 23 23 24 25 25 25 26 26 26 26 26 25 24 24 24 23 22 22 22 22 23 23 25 26 28 29 31 33 35 37 39
37 39 41 43 44 45 45 46 47 47 48 51 51 51 51 51 52 53 54 53 53 53 53 53 53 52 53 54 54 52 50 47 42 38 34 31 29 27 27 25 21 16 11 9 8 8 9 9 13 19 23 24 25 23 23 23 24 24 24 24 24 25 25 25 25 25 24 25 24 24 24 23 22 21 21 22 22 22 22 23 24 24 26 27 29
38 40 42 43 44 45 45 46 47 48 50 51 50 50 50 51 52 53 53 53 53 53 51 51 51 52 53 53 49 44 41 38 35 32 30 28 27 27 26 24 20 15 11 8 7 6 8 10 13 17 21 23 24 23 23 23 23 23 23 23 23 23 25 25 25 25 25 25 25 25 25 25 25 24 24 24 25 25 24 23 23 23 23 23 24
40 42 42 43 43 45 45 46 48 50 51 50 49 49 50 51 52 53 54 53 53 51 51 51 52 54 54 50 42 36 33 31 29 29 27 27 28 26 26 24 20 14 9 6 6 6 8 12 16 20 23 24 24 24 24 24 24 23 24 24 24 25 26 26 26 26 26 26 26 27 27 28 28 28 28 28 28 28 28 28 27 27 26 25 25
43 43 42 42 44 45 46 47 48 50 52 52 51 49 50 52 52 53 54 53 52 51 51 53 53 52 48 42 35 30 28 28 28 28 27 27 27 25 25 23 16 10 6 5 5 5 7 11 16 19 23 25 24 25 25 25 25 25 25 26 26 26 26 26 26 26 26 27 29 31 33 35 36 36 35 34 33 32 31 31 31 30 30 29 29
44 44 43 43 45 46 46 48 51 53 54 54 53 52 53 53 53 53 52 51 51 50 50 49 46 43 39 34 30 29 29 28 28 28 27 26 25 24 24 19 11 6 5 4 5 5 7 8 11 14 18 21 23 25 26 27 27 26 27 27 26 27 26 26 27 27 28 29 30 32 34 37 40 43 44 43 41 39 37 35 33 33 34 34 34
43 43 44 45 46 46 48 51 54 55 56 55 54 53 54 53 52 51 49 48 48 48 48 45 40 37 34 31 29 29 29 29 27 26 25 24 23 24 22 15 8 6 6 5 6 6 6 7 8 9 12 15 17 19 22 26 28 28 28 26 25 24 24 24 24 25 26 27 28 29 29 33 40 46 50 50 49 47 45 42 40 38 38 39 41
44 44 45 46 46 48 51 53 55 56 55 53 52 51 50 49 48 46 45 44 45 46 46 43 38 35 32 30 29 30 29 27 26 25 24 23 23 23 19 12 8 8 8 7 7 7 7 8 8 9 9 10 11 12 15 19 23 26 27 27 26 26 26 26 26 27 28 29 30 28 29 36 45 50 53 56 55 53 51 49 47 46 45 46 47
43 44 45 45 47 49 51 53 53 51 49 49 48 47 45 42 41 40 40 41 42 44 43 40 36 33 31 30 30 29 27 25 24 24 23 23 24 20 14 10 9 10 9 9 9 9 9 9 9 9 9 9 10 11 13 16 19 25 29 31 31 32 32 32 33 34 35 35 34 34 36 43 51 55 58 62 63 61 60 60 59 58 57 56 55
43 42 43 44 47 49 50 50 47 45 47 49 49 49 46 40 36 37 38 39 39 39 37 35 33 31 30 30 29 27 26 24 24 23 23 23 21 15 11 11 11 11 10 10 9 9 9 8 8 9 9 11 11 12 15 18 22 28 32 33 33 34 36 37 38 37 37 36 37 37 38 43 51 58 63 69 72 72 72 71 71 71 70 69 66
45 44 44 45 46 47 48 48 46 46 51 53 53 56 56 49 40 36 37 37 36 34 32 32 32 31 31 30 28 25 24 24 24 24 23 20 16 13 14 16 16 15 13 10 8 8 8 8 8 9 10 11 11 11 12 14 16 19 22 24 24 25 28 31 33 32 32 31 31 30 32 37 46 56 63 70 75 78 77 76 75 75 75 75 72
46 45 45 45 45 46 47 48 47 48 52 51 51 56 62 60 49 39 36 36 34 33 32 31 32 32 31 29 26 24 23 24 24 22 18 15 15 16 18 20 19 17 12 8 7 7 7 8 9 10 12 13 14 14 14 14 14 15 18 20 22 25 26 27 28 28 27 26 24 25 29 34 41 48 57 64 71 75 77 77 76 75 75 75 73
47 44 42 42 43 45 47 47 47 48 49 48 48 51 57 60 53 42 36 35 34 33 33 32 32 31 29 26 25 24 23 22 20 17 15 15 17 20 21 21 19 13 9 7 8 9 11 12 13 14 17 19 20 21 21 21 22 23 26 30 34 38 39 38 37 37 36 35 35 36 38 39 39 42 48 55 61 68 74 78 78 76 77 76 73
48 44 41 40 41 44 48 50 51 52 51 51 53 54 52 51 47 41 37 36 35 34 33 32 32 30 28 26 24 22 21 19 16 14 16 18 20 21 20 18 13 8 8 10 13 15 16 17 19 21 22 24 25 27 27 29 30 31 34 36 40 42 43 43 44 45 46 47 48 47 46 46 45 45 45 48 52 57 64 74 79 78 77 76 72
50 46 43 42 45 49 54 57 59 58 56 54 57 57 52 47 42 38 37 37 35 33 33 33 32 29 25 22 21 19 18 16 15 16 19 20 20 18 15 11 8 9 12 16 18 19 20 21 23 26 27 28 29 29 30 32 33 35 36 38 40 41 42 42 43 44 46 47 45 43 43 45 47 48 49 51 53 53 53 59 70 77 78 76 73
52 49 47 49 52 57 60 61 62 62 60 59 60 57 51 45 40 37 37 36 34 33 34 32 28 24 20 19 18 17 16 16 17 19 21 19 16 12 9 8 10 14 17 19 21 22 24 25 27 28 28 27 27 27 27 28 29 31 32 33 34 36 37 39 40 41 43 42 40 39 39 41 42 43 45 49 55 58 55 51 55 65 72 75 75
58 54 53 55 57 60 62 63 62 61 61 64 63 54 46 42 39 37 36 34 33 33 31 27 21 19 18 17 16 16 16 17 19 20 19 14 10 8 8 11 16 19 20 22 24 25 26 27 28 28 27 26 26 26 26 27 28 28 29 29 29 31 31 33 34 35 35 35 34 33 34 36 39 41 42 43 47 55 59 57 52 53 60 68 73
60 57 55 56 58 61 64 64 62 61 62 65 61 50 42 40 38 36 35 34 34 30 25 20 17 16 15 14 14 15 16 17 18 16 12 9 8 10 13 17 20 21 22 23 24 24 26 28 27 26 25 25 25 26 26 27 29 30 31 31 30 30 30 31 31 30 30 29 29 30 31 33 37 43 46 45 44 47 54 61 60 55 54 60 68
58 56 56 58 61 65 67 65 63 63 63 62 57 47 41 38 35 34 34 33 29 24 19 17 15 13 13 13 12 13 14 13 12 9 7 10 13 16 19 22 22 22 23 24 24 24 26 26 25 24 25 26 26 26 26 27 29 30 32 33 34 34 34 33 32 30 29 29 29 30 32 34 38 45 50 51 50 50 53 61 68 66 59 57 64
55 55 57 59 64 68 68 65 65 67 63 57 51 45 39 35 32 31 30 28 24 19 16 15 14 13 12 11 10 10 9 7 7 9 12 17 20 21 23 24 24 23 24 25 24 24 25 25 25 25 26 27 27 28 29 32 34 35 35 35 36 37 37 37 37 34 32 31 32 34 38 40 44 48 53 55 57 58 58 61 68 73 70 64 64
57 58 59 61 65 68 68 67 69 71 64 54 46 40 34 31 29 28 27 24 19 16 15 15 14 12 9 8 7 6 6 8 11 15 19 22 24 23 23 24 25 25 25 24 24 24 25 25 26 26 27 27 28 31 36 41 44 44 43 41 41 42 43 44 44 41 38 36 37 41 46 49 51 55 58 62 64 65 65 63 64 70 73 70 67
62 61 61 65 69 69 69 70 71 69 60 48 39 34 30 29 29 28 26 21 17 16 16 14 11 8 6 6 6 7 10 14 17 19 22 23 23 23 24 25 26 26 25 24 25 25 25 24 24 24 25 27 31 38 44 48 51 52 51 49 48 48 50 50 48 45 42 41 44 51 54 54 55 56 58 63 69 70 67 65 63 64 69 69 67
66 64 65 70 74 71 69 70 67 59 48 39 33 30 29 30 30 28 24 20 19 17 14 10 7 6 6 7 9 12 15 18 19 20 21 22 23 24 24 26 27 26 24 25 25 25 24 24 24 25 28 34 41 47 51 53 55 56 56 54 52 52 53 52 50 46 43 43 48 54 57 56 56 56 58 64 72 74 69 65 64 64 68 69 67
64 64 66 70 72 69 66 64 58 47 38 33 31 30 30 32 30 26 22 19 16 13 9 7 7 7 8 9 12 15 17 18 20 20 21 22 23 23 23 25 26 25 25 24 23 23 23 24 25 26 33 42 49 53 55 58 59 58 58 56 55 54 53 50 48 47 46 48 52 55 56 57 56 56 61 69 75 77 73 68 65 65 69 72 69
60 62 66 69 70 68 61 53 46 39 34 32 31 30 32 32 29 23 18 14 11 8 8 8 8 8 9 11 14 17 18 19 19 19 21 22 23 22 22 24 25 25 24 23 22 23 24 24 24 29 38 48 54 57 59 60 60 59 59 58 56 55 54 52 51 52 53 54 55 55 55 56 57 60 67 74 78 79 76 71 67 65 68 72 73
61 64 68 69 68 61 51 43 40 36 33 30 30 31 32 30 24 17 14 11 10 10 9 9 9 9 10 13 18 20 21 20 19 18 20 21 21 21 22 23 23 23 23 22 22 23 23 22 25 33 43 52 59 62 60 57 58 59 59 58 58 57 57 56 56 55 55 54 54 55 57 60 63 67 71 75 79 81 80 75 70 67 66 68 71
68 67 68 68 62 51 43 41 39 36 33 31 31 32 31 25 18 14 12 11 12 11 10 10 10 10 12 17 20 22 22 21 19 19 20 21 20 21 23 23 24 24 23 22 23 23 22 23 28 37 47 55 62 66 63 60 62 64 63 62 64 63 61 61 60 59 59 58 58 61 64 67 69 70 71 74 78 80 80 79 77 72 67 65 67
75 72 68 63 54 45 41 40 39 36 34 32 31 30 26 20 16 14 13 13 13 12 11 10 10 12 16 20 21 21 21 21 20 20 21 20 21 22 23 24 25 25 23 23 24 23 22 25 31 41 50 58 64 68 69 71 74 75 73 71 70 70 69 68 68 68 68 67 66 67 70 71 71 70 71 74 77 78 78 79 79 78 74 71 67
72 74 68 56 46 43 42 40 39 37 35 34 32 29 23 18 17 15 14 14 14 13 11 11 11 15 19 21 21 21 21 19 18 20 20 20 21 22 23 25 26 24 23 23 24 23 22 25 33 44 55 62 67 69 73 77 82 82 80 77 74 74 73 73 73 72 72 71 70 69 69 68 68 68 70 73 75 75 75 76 78 79 79 78 74
64 66 60 49 44 43 41 39 39 38 36 35 32 27 20 17 17 16 16 16 16 14 12 12 14 17 19 21 21 21 20 18 19 19 18 19 20 21 23 25 23 22 23 24 24 22 22 24 32 46 60 68 71 72 76 82 87 87 83 77 75 74 73 73 74 72 71 70 69 68 67 68 68 69 71 74 75 75 76 75 75 75 74 75 74
59 57 51 45 44 43 41 40 39 38 37 35 30 24 19 17 17 17 17 17 17 15 14 14 16 18 19 20 21 20 19 18 18 18 18 18 20 21 22 21 20 21 24 25 23 21 22 24 31 47 65 74 74 74 79 87 93 92 85 79 77 76 75 74 75 74 73 73 72 71 71 72 71 73 76 77 78 78 77 76 75 73 72 71 70
55 50 46 44 43 42 41 40 39 38 37 34 27 21 18 17 18 19 19 18 18 17 15 14 16 19 20 21 21 19 18 17 17 18 19 19 20 20 19 17 19 23 25 25 22 20 21 23 29 45 67 79 78 78 83 90 93 92 88 85 84 85 85 86 85 84 83 81 80 80 79 78 78 78 79 78 78 77 76 75 75 75 74 73 72
49 45 43 43 42 41 41 39 39 38 36 30 24 20 18 18 20 21 20 19 18 16 15 14 17 20 21 21 21 19 17 17 17 17 19 19 20 18 16 15 20 24 25 24 22 20 20 22 28 45 68 81 81 82 88 92 91 90 90 90 90 90 93 95 94 93 91 90 89 87 86 84 81 79 78 77 76 76 75 75 74 75 76 78 79
46 44 43 42 41 41 39 39 38 37 33 26 22 19 18 19 19 19 19 19 18 16 14 14 18 20 21 20 21 19 18 17 16 17 19 20 19 16 13 15 21 23 22 23 21 20 20 21 27 45 68 81 82 86 92 93 90 89 91 92 89 86 89 93 94 94 93 92 90 89 86 83 79 75 74 76 77 78 78 77 76 77 78 81 82
46 46 44 43 41 39 37 37 37 34 29 24 20 19 18 19 19 18 18 18 18 16 14 15 19 21 21 21 21 19 18 17 16 17 19 20 20 16 13 17 23 24 22 23 21 19 20 20 25 45 70 81 83 88 94 94 90 88 89 88 84 81 84 88 90 90 90 89 89 87 84 82 78 74 73 75 76 78 79 80 81 81 82 83 84
47 46 44 43 40 36 34 35 34 30 26 22 19 18 18 19 18 18 18 18 17 16 14 15 18 20 21 21 20 19 17 16 16 17 19 21 20 15 14 19 25 24 23 24 21 19 20 19 24 45 72 84 86 90 95 93 90 89 87 84 79 78 81 85 87 88 87 87 87 87 84 82 81 80 78 78 78 80 82 82 83 83 84 85 85
47 45 43 40 37 33 32 32 31 28 25 21 18 18 19 19 19 18 17 17 17 16 14 15 17 19 20 21 19 17 15 15 16 18 20 22 21 16 15 21 26 24 23 24 22 19 19 20 24 44 71 87 90 93 95 93 91 90 86 80 77 77 78 81 83 85 86 86 87 87 86 84 83 83 83 82 81 82 84 84 83 82 82 83 84
45 43 40 37 34 32 30 29 29 26 23 20 18 18 19 19 18 17 17 17 16 16 15 15 17 19 20 20 20 18 15 15 17 18 20 23 21 16 16 22 26 24 23 24 21 18 19 20 24 40 66 86 92 94 93 91 90 89 85 78 75 76 77 78 81 84 86 86 86 86 87 86 85 85 86 86 85 84 84 85 84 82 81 82 82
44 42 39 37 34 31 29 27 27 25 21 19 19 19 19 18 17 16 16 17 16 15 16 17 18 20 21 21 21 19 17 17 18 18 20 23 21 16 17 23 26 24 24 24 21 18 19 20 23 35 57 78 90 92 90 89 89 88 83 78 76 77 77 78 81 83 84 85 85 87 88 88 88 88 88 88 87 86 85 85 85 84 83 84 83
43 41 37 34 30 27 26 26 25 23 20 19 20 20 19 18 18 17 17 16 16 16 17 19 19 20 21 22 21 21 19 19 19 19 20 23 21 16 18 24 25 24 24 23 20 18 19 19 21 29 44 65 81 88 88 89 90 88 81 78 79 81 81 80 80 81 83 85 86 89 91 90 90 91 91 91 90 90 88 88 89 90 90 89 89
40 37 33 30 26 24 24 25 24 22 21 21 20 19 18 18 18 17 16 16 16 16 18 19 19 20 22 22 22 21 21 20 19 19 21 24 21 17 19 24 25 24 25 23 20 18 19 19 20 24 34 50 68 80 86 89 91 89 84 80 80 82 84 84 82 81 82 84 85 86 88 90 90 92 92 92 92 92 93 94 94 94 94 94 93
37 35 32 28 25 24 25 25 23 23 22 22 20 18 18 18 18 17 16 16 16 17 19 20 20 20 22 22 22 22 21 20 19 20 22 24 21 17 19 24 25 25 24 23 20 18 19 19 20 22 27 37 53 69 81 88 91 90 88 85 83 83 84 85 85 85 84 85 85 84 85 86 87 89 91 92 92 91 92 93 94 94 95 95 95
37 36 32 28 26 26 25 24 24 23 23 21 19 18 18 17 17 16 16 16 17 18 19 20 20 20 22 22 22 22 21 20 20 21 23 24 21 18 19 23 24 24 25 23 19 17 18 19 19 21 22 27 37 53 69 83 89 91 90 89 88 87 87 87 87 86 86 86 87 86 85 85 85 86 87 89 91 92 91 91 92 93 93 94 95
39 37 33 29 27 26 25 24 23 22 21 20 20 19 18 16 16 15 16 16 17 18 19 19 20 21 22 22 22 22 21 21 21 22 23 24 21 18 19 23 24 24 24 22 18 16 17 18 18 19 20 22 26 35 48 65 78 85 88 89 89 89 90 90 89 88 87 86 86 85 85 86 87 86 85 85 86 88 88 90 91 92 93 93 94
40 38 34 31 28 27 26 24 23 21 20 20 20 20 18 16 15 15 16 17 17 19 19 19 21 22 22 22 22 22 21 21 22 22 23 24 21 17 19 22 23 23 24 22 18 16 17 17 17 18 19 20 21 23 29 40 52 63 71 76 79 82 85 86 87 87 86 85 84 83 83 84 85 85 85 83 82 82 83 85 87 89 90 92 92
40 38 35 32 30 29 27 24 22 22 22 21 20 19 18 17 16 16 17 17 18 19 19 19 21 23 22 21 22 22 22 22 22 23 23 24 20 17 18 22 23 23 23 21 17 16 16 17 17 17 18 19 19 20 21 24 30 37 44 51 56 61 65 68 71 74 76 78 81 82 83 83 84 84 85 86 85 85 85 87 88 89 90 90 91
40 38 35 33 32 31 28 25 24 23 23 22 21 19 18 17 17 18 18 18 18 19 19 19 21 22 22 22 22 22 21 22 22 22 23 24 20 16 17 21 22 22 22 21 17 16 16 16 16 17 17 17 18 18 19 20 22 23 27 31 35 40 45 49 53 56 59 62 64 65 66 67 68 69 71 73 74 75 75 76 77 78 78 78 78
41 38 34 32 33 32 29 26 24 24 24 22 21 19 18 18 18 18 18 18 18 19 20 19 19 20 20 21 22 22 21 21 20 21 23 23 19 15 17 21 21 20 21 20 17 16 16 16 15 16 16 16 17 17 17 18 19 20 21 23 24 27 30 33 36 38 40 41 41 41 41 42 43 45 48 49 51 52 53 54 55 56 57 57 58
43 38 32 32 33 33 30 26 25 24 23 21 20 19 18 18 18 18 18 18 17 19 19 19 18 19 19 20 20 20 19 19 19 21 23 22 17 14 17 20 20 19 20 19 18 16 16 15 15 15 15 15 15 16 16 17 17 18 19 20 21 22 23 24 25 26 26 27 27 27 27 28 29 30 32 34 35 37 38 40 41 42 42 43 43
43 37 33 32 32 31 28 26 24 23 21 20 19 19 18 18 18 19 18 18 18 18 18 17 17 17 17 18 18 18 18 17 18 21 23 22 16 14 17 20 19 18 19 18 17 16 16 14 14 15 15 14 15 14 14 15 16 16 17 18 18 19 20 20 20 21 21 21 21 21 22 22 23 24 24 25 26 27 29 29 31 31 32 32 33